Regional Weather Roundup
Issued by NWS

Home | Current Version | Previous Version | Text Only | Print | Product List | Glossary On
Versions: 1 2 3 4 5 6 7 8 9 10 11 12 13 14 15 16 17 18 19 20 21 22 23 24 25 26 27 28 29 30 31 32 33 34 35 36 37 38 39 40 41 42 43 44 45 46 47 48 49 50
000
ASUS44 KEWX 021311
RWRTX
SOUTH TEXAS REGIONAL WEATHER ROUNDUP
NATIONAL WEATHER SERVICE AUSTIN/SAN ANTONIO TX
700 AM CST FRI DEC 02 2016

NOTE: "FAIR" INDICATED FEW OR NO CLOUDS BELOW 12,000 FEET WITH NO
SIGNIFICANT WEATHER AND/OR OBSTRUCTIONS TO VISIBILITY.

* - THESE STATIONS ARE NOT NWS OR FAA STATIONS...AND ARE NOT SUBJECT
    TO NWS AND FAA QUALITY CONTROL.

TXZ171-172-183>190-021400-
TEXAS HILL COUNTRY AND EDWARDS PLATEAU

CITY           SKY/WX    TMP DP  RH WIND       PRES   REMARKS
JUNCTION       CLOUDY    53  49  86 E3        30.02R
*LLANO         CLOUDY    52  52 100 CALM      30.10R
BURNET         CLOUDY    50  44  80 E8        30.08R WCI  47
*HORSESHOE BAY CLOUDY    52  48  85 CALM      30.06R
*KERRVILLE     CLOUDY    56  53  88 E7        30.03R
*FREDERICKSBRG CLOUDY    55  49  81 E3        30.04R
*ROCKSPRINGS   CLOUDY    57  55  94 SE9       30.01R
*BOERNE STAGE  CLOUDY    55  50  82 CALM      30.05R
*CASTROVILLE   CLOUDY    59  50  73 E9        30.03R
HONDO          CLOUDY    60  53  77 E9        30.00S
*UVALDE        CLOUDY    60  54  81 E10       29.98S
DEL RIO        CLOUDY    59  56  89 SE6       29.95R
LAUGHLIN AFB   CLOUDY    61  56  84 SE10      29.95R
CARRIZO SPRGS  CLOUDY    61  55  82 E3        29.95S
*EAGLE PASS      N/A     61  55  82 SE7       29.96R
$$

TXZ173-191>194-202-209-217>225-228-021400-
CENTRAL AND SOUTH CENTRAL TEXAS

CITY           SKY/WX    TMP DP  RH WIND       PRES   REMARKS
GEORGETOWN     CLOUDY    52  43  71 NE3       30.08R
AUSTIN/BERGSTM CLOUDY    52  47  83 N7        30.07R
AUSTIN/MABRY   CLOUDY    53  46  77 VRB3      30.08R
*AUSTIN/EXEC   CLOUDY    50  45  81 CALM      30.08R
*LAGO VISTA    CLOUDY    52  46  80 E8        30.07R
SAN MARCOS     MOCLDY    54  45  71 NE7       30.06S
NEW BRAUNFELS  CLOUDY    55  48  77 NE7       30.03R
RANDOLPH AFB   CLOUDY    56  50  80 NE7       30.02S
PT SAN ANTONIO CLOUDY    59  51  75 NE9       29.99R
SAN ANTONIO    CLOUDY    58  50  75 E7        30.02R
STINSON FIELD  CLOUDY    59  50  72 NE8       30.00S
*PLEASANTON    CLOUDY    59  52  79 NE3       30.01R
*LA GRANGE     CLOUDY    57  48  72 E6        30.05S
*GIDDINGS      CLOUDY    55  45  70 E6        30.11R
*GONZALES      CLOUDY    60  52  74 E8        30.04R
$$

TXZ163>164-176>182-195>201-210>213-226-227-235-021400-
SOUTHEAST TEXAS

CITY           SKY/WX    TMP DP  RH WIND       PRES   REMARKS
COLLEGE STN    CLOUDY    52  41  66 E8        30.10R
*BRYAN         CLOUDY    48  41  75 E6        30.12R WCI  46
*CALDWELL      NOT AVBL
*CROCKETT      CLOUDY    46  36  66 E6        30.17R WCI  43
*BRENHAM       CLOUDY    55  44  67 E5        30.09S
HUNTSVILLE     MOCLDY    50  39  66 E6        30.11S WCI  48
CONROE         CLOUDY    51  39  63 E7        30.12R
HOUSTON BUSH   MOCLDY    51  43  74 E10       30.10R
HOUSTON HOBBY  MOCLDY    58  47  66 E9        30.09S
*HOUSTON SW AP MOCLDY    56  49  77 NE8       30.09S
PEARLAND       MOCLDY    60  51  72 E9        30.11R
HOUSTON HOOKS  CLOUDY    53  40  61 NE5       30.10R
ELLINGTON FLD  MOCLDY    59  48  67 E8        30.10S
SUGAR LAND     MOCLDY    57  48  72 E8        30.08R
*HOUSTON EXEC  MOCLDY    54  45  71 E9        30.09S
*CLEVELAND MUN CLOUDY    47  41  78 CALM      30.14S
*WHARTON       CLOUDY    58  51  77 NE7       30.05F
*COLUMBUS      CLOUDY    55  46  69 E6        30.08R
*EAGLE LAKE    CLOUDY    57  49  76 NE7       30.07R
$$

TXZ214>216-236>238-021400-
THE UPPER TEXAS COAST

CITY           SKY/WX    TMP DP  RH WIND       PRES   REMARKS
*ORANGE        CLOUDY    50  40  70 CALM      30.16R
PORT ARTHUR    CLOUDY    55  44  66 E7        30.12R
GALVESTON      CLOUDY    67  57  70 E13       30.09R
ANGLETON       MOCLDY    60  54  80 NE8       30.07R
*BAY CITY      CLOUDY    60  56  87 NE9       30.04S
PALACIOS       CLOUDY    63  58  83 E13       30.01F
$$

TXZ229>234-239>247-021400-
TEXAS COASTAL BEND AND RIO GRANDE PLAINS

CITY           SKY/WX    TMP DP  RH WIND       PRES   REMARKS
VICTORIA       CLOUDY    59  54  83 NE9       30.02S
*BEEVILLE      CLOUDY    64  60  85 E7        29.98R
ROCKPORT         N/A    N/A N/A N/A MISG      29.98R
*PORT ARANSAS  CLOUDY    71  66  83 E9        29.96S
*PORT LAVACA   CLOUDY    63  59  88 NE10      30.01S
*INGLESIDE     CLOUDY    71  65  82 NE14      29.97R
CORPUS CHRISTI CLOUDY    69  65  86 E14       29.95R
CORPUS NAS     CLOUDY    72  68  87 E9        29.96R
*ROBSTOWN      CLOUDY    67  62  84 NE9       29.96S
ALICE          CLOUDY    64  60  87 NE9       29.95R
KINGSVILLE NAS CLOUDY    70  66  87 NE7       29.95R
COTULLA        CLOUDY    63  59  87 E8        29.96S
*FAITH RANCH   CLOUDY    63  59  88 E9        29.96R
LAREDO         CLOUDY    65  60  84 NE10      29.94R
$$

TXZ248>255-021400-
DEEP SOUTH TEXAS

CITY           SKY/WX    TMP DP  RH WIND       PRES   REMARKS
BROWNSVILLE    CLOUDY    74  72  93 SE5       29.92R
PORT ISABEL    CLOUDY    74  72  93 SE10      29.92R
*SOUTH PADRE     N/A     75  73  94 SE12      29.93R
HARLINGEN      CLOUDY    72  72 100 W7        29.92R
*HEBBRONVILLE  CLOUDY    65  63  94 E9        29.95R FOG
MCALLEN        CLOUDY    72  68  87 E7        29.93R
*WESLACO       DRIZZLE   68  68  98 CALM      29.92S
FALFURRIAS     CLOUDY    69  66  90 E6        29.94R
EDINBURG       RAIN      69  66  91 SW3       29.94R
*ZAPATA        CLOUDY    69  65  89 E6        29.93R
$$

TXZ213>215-236>238-242>244-246-247-251-254-255-021400-
CMAN STATIONS

STATION/POSITION TIME  TEMP    WIND        PRES    WAVE
                       AIR SEA DIR/SP/G            HT/PER
                 (UTC) (F)     (DEG/KT/KT) (MB)    (FT/S)
SABINE PASS      1248   56 66   60/  9/ 12 1021.0
SEA RIM ST PARK  1200   55      70/  8/ 11 1020.2
NORTH JETTY/GLS  1248   66 65   80/ 21/ 22   N/A
EAGLE POINT      1248   59 63   80/ 14/ 17 1019.1
MORGANS POINT    1248   58 67   70/ 11/ 14 1019.2
PORT O`CONNOR    1248   66      60/ 13/ 14 1015.4
PORT ARANSAS     1200   72 70   70/ 14/ 16 1014.3
MALAQUITE BEACH  1248   73 70   80/ 15/ 17 1014.6
BAFFIN BAY       1248   72 68   80/ 12/ 13 1013.9
PORT ISABEL      1248   75 74  160/  4/  6 1013.1
$$

GMZ080-GMZ150>470-021400-
OFFSHORE BUOY REPORTS

STATION/POSITION TIME  TEMP    WIND        PRES    WAVE
                       AIR SEA DIR/SP/G            HT/PER
                 (UTC) (F)     (DEG/KT/KT) (MB)    (FT/S)
20 E GALVESTON   1250   66 69   70/ 17/ 21 1018.7    4/ 5
90 E PT ARANSAS  1250   75 77   70/ 17/ 21 1015.5    5/ 7
35 NE PT MANSFLD 1250   75 76   80/ 17/ 21 1013.3    6/ 8
200 E PT ISABEL  1250   77 78  100/ 19/ 21 1014.6    5/ 7
$$




USA.gov is the U.S. government's official web portal to all federal, state and local government web resources and services.